This is the latest recevied weather packets stored in our database for station/object KB2EAR-13. If no packets are shown the sender has not sent any weather packets the latest 1 day(s).
| Time | Temp. | Humidity | Pressure | Rain* | Wind** | Luminosity | Snow |
|---|---|---|---|---|---|---|---|
| 1778027418 | 24.44° C | 47% | 1010.4 hPa | 0 mm | 2.24 m/s, 248° | - | - |
| 1778027118 | 24.44° C | 46% | 1010.3 hPa | 0 mm | 2.24 m/s, 248° | - | - |
| 1778026863 | 24.44° C | 45% | 1010.2 hPa | 0 mm | 1.34 m/s, 248° | - | - |
| 1778026818 | 24.44° C | 45% | 1010.2 hPa | 0 mm | 1.34 m/s, 248° | - | - |
| 1778026518 | 24.44° C | 45% | 1010.3 hPa | 0 mm | 0.89 m/s, 248° | - | - |
| 1778026289 | 25° C | 44% | 1010.2 hPa | 0 mm | 1.34 m/s, 248° | - | - |
| 1778026218 | 25° C | 44% | 1010.2 hPa | 0 mm | 1.34 m/s, 248° | - | - |
| 1778025917 | 25° C | 45% | 1010 hPa | 0 mm | 0.89 m/s, 248° | - | - |
| 1778025618 | 25° C | 44% | 1010.1 hPa | 0 mm | 1.34 m/s, 248° | - | - |
| 1778025318 | 25° C | 44% | 1010.1 hPa | 0 mm | 1.79 m/s, 248° | - | - |
| 1778025018 | 25° C | 44% | 1010 hPa | 0 mm | 1.79 m/s, 248° | - | - |
| 1778024718 | 25.56° C | 43% | 1010 hPa | 0 mm | 1.34 m/s, 270° | - | - |
| 1778024418 | 25.56° C | 43% | 1010.1 hPa | 0 mm | 1.79 m/s, 248° | - | - |
| 1778024118 | 25.56° C | 43% | 1009.9 hPa | 0 mm | 0.89 m/s, 248° | - | - |
| 1778023818 | 26.11° C | 42% | 1009.8 hPa | 0 mm | 1.79 m/s, 248° | - | - |
| 1778023560 | 26.11° C | 42% | 1009.7 hPa | 0 mm | 1.79 m/s, 270° | - | - |
| 1778023518 | 26.11° C | 42% | 1009.7 hPa | 0 mm | 1.79 m/s, 270° | - | - |
| 1778023264 | 26.11° C | 41% | 1009.6 hPa | 0 mm | 2.68 m/s, 270° | - | - |
| 1778023218 | 26.11° C | 41% | 1009.6 hPa | 0 mm | 2.68 m/s, 270° | - | - |
| 1778023073 | 26.67° C | 39% | 1009.5 hPa | 0 mm | 1.79 m/s, 270° | - | - |
| 1778022918 | 26.67° C | 40% | 1009.6 hPa | 0 mm | 1.79 m/s, 270° | - | - |
| 1778022618 | 26.67° C | 39% | 1009.5 hPa | 0 mm | 1.79 m/s, 270° | - | - |
| 1778022318 | 26.67° C | 38% | 1009.4 hPa | 0 mm | 1.79 m/s, 270° | - | - |
| 1778022018 | 26.67° C | 37% | 1009.4 hPa | 0 mm | 1.79 m/s, 248° | - | - |
| 1778021718 | 27.22° C | 36% | 1009.4 hPa | 0 mm | 2.68 m/s, 270° | - | - |
* Rain latest hour (hover to see other rain measurements)
** Current wind speed in m/s (hover to see current wind gust speed)